VLG1PL LEBL-LEXJ

Flight info

Callsign VLG1PL
Flight time N/A
Altitude 29000
Route GRAUS M601 MALOB DCT CEGAM M601 BLV
Aircraft A321/M-SDE3FGHIRWY/LB1

Departure

Time N/A
Airport Josep Tarradellas Barcelona-El Prat Airport (LEBL)

Arrival

Time 2026-04-27 18:29
Airport Seve Ballesteros-Santander Airport (LEXJ)
Time Latitude Longitude Altitude Speed Heading
2026-04-27 18:15 43.09454 -2.47258 22334 ft 467 kts 300°
2026-04-27 18:15 43.11187 -2.50952 21256 ft 468 kts 300°
2026-04-27 18:15 43.12933 -2.54695 20320 ft 465 kts 300°
2026-04-27 18:16 43.14661 -2.58410 19477 ft 460 kts 300°
2026-04-27 18:16 43.16369 -2.62093 18667 ft 456 kts 300°
2026-04-27 18:16 43.18058 -2.65741 17834 ft 451 kts 300°
2026-04-27 18:16 43.19711 -2.69316 17539 ft 434 kts 300°
2026-04-27 18:17 43.21300 -2.72742 17165 ft 420 kts 300°
2026-04-27 18:17 43.22854 -2.76094 16543 ft 414 kts 300°
2026-04-27 18:17 43.24389 -2.79408 15944 ft 410 kts 300°
2026-04-27 18:17 43.25908 -2.82696 15348 ft 406 kts 300°
2026-04-27 18:18 43.27413 -2.85964 14770 ft 403 kts 300°
2026-04-27 18:18 43.28903 -2.89204 14174 ft 400 kts 300°
2026-04-27 18:18 43.30114 -2.92599 13547 ft 394 kts 287°
2026-04-27 18:18 43.30666 -2.96237 12896 ft 387 kts 274°
2026-04-27 18:19 43.30893 -2.99907 12217 ft 385 kts 274°
2026-04-27 18:19 43.31120 -3.03527 11321 ft 378 kts 274°
2026-04-27 18:19 43.31349 -3.07114 10306 ft 377 kts 274°
2026-04-27 18:19 43.31579 -3.10670 9957 ft 366 kts 274°
2026-04-27 18:20 43.31800 -3.14067 9826 ft 348 kts 274°
2026-04-27 18:20 43.32004 -3.17219 9689 ft 323 kts 274°
2026-04-27 18:20 43.32196 -3.20186 9558 ft 301 kts 274°
2026-04-27 18:20 43.32375 -3.22961 9145 ft 285 kts 274°
2026-04-27 18:21 43.32542 -3.25651 8482 ft 282 kts 274°
2026-04-27 18:21 43.32704 -3.28307 7810 ft 277 kts 273°
2026-04-27 18:21 43.32866 -3.30946 7195 ft 279 kts 274°
2026-04-27 18:21 43.33028 -3.33599 6863 ft 277 kts 274°
2026-04-27 18:22 43.33188 -3.36228 6487 ft 275 kts 274°
2026-04-27 18:22 43.33345 -3.38826 5803 ft 272 kts 274°
2026-04-27 18:22 43.33499 -3.41386 5359 ft 263 kts 274°
2026-04-27 18:22 43.33646 -3.43815 5183 ft 248 kts 274°
2026-04-27 18:23 43.33790 -3.46157 4976 ft 243 kts 274°
2026-04-27 18:23 43.33930 -3.48449 4840 ft 239 kts 274°
2026-04-27 18:23 43.34258 -3.50684 4562 ft 239 kts 288°
2026-04-27 18:23 43.34825 -3.52792 4261 ft 231 kts 291°
2026-04-27 18:24 43.35388 -3.54809 3977 ft 222 kts 291°
2026-04-27 18:24 43.35913 -3.56739 3667 ft 210 kts 291°
2026-04-27 18:24 43.36408 -3.58568 3402 ft 198 kts 291°
2026-04-27 18:24 43.36878 -3.60309 3137 ft 190 kts 291°
2026-04-27 18:25 43.37327 -3.61973 2887 ft 182 kts 291°
2026-04-27 18:25 43.37757 -3.63569 2659 ft 178 kts 291°
2026-04-27 18:25 43.38178 -3.65129 2446 ft 171 kts 291°
2026-04-27 18:25 43.38591 -3.66663 2195 ft 171 kts 291°
2026-04-27 18:26 43.39001 -3.68186 1973 ft 169 kts 291°
2026-04-27 18:26 43.39408 -3.69701 1741 ft 168 kts 291°
2026-04-27 18:26 43.39804 -3.71171 1533 ft 157 kts 291°
2026-04-27 18:26 43.40171 -3.72541 1310 ft 150 kts 292°
2026-04-27 18:27 43.40531 -3.73881 1099 ft 148 kts 292°
2026-04-27 18:27 43.40885 -3.75208 882 ft 147 kts 290°
2026-04-27 18:27 43.41224 -3.76511 688 ft 147 kts 292°
2026-04-27 18:27 43.41591 -3.77823 516 ft 147 kts 291°
2026-04-27 18:28 43.41943 -3.79151 296 ft 146 kts 292°
2026-04-27 18:28 43.42293 -3.80459 101 ft 146 kts 292°
2026-04-27 18:28 43.42624 -3.81696 27 ft 124 kts 292°
2026-04-27 18:28 43.42874 -3.82621 20 ft 78 kts 290°
2026-04-27 18:29 43.42942 -3.82943 19 ft 16 kts 251°
2026-04-27 18:29 43.42865 -3.83035 19 ft 16 kts 187°
2026-04-27 18:29 43.42789 -3.82948 19 ft 16 kts 110°
2026-04-27 18:29 43.42752 -3.82803 19 ft 17 kts 109°
2026-04-27 18:30 43.42712 -3.82650 20 ft 18 kts 110°
2026-04-27 18:30 43.42666 -3.82479 19 ft 19 kts 110°
2026-04-27 18:30 43.42626 -3.82327 20 ft 11 kts 116°
2026-04-27 18:30 43.42564 -3.82308 19 ft 10 kts 198°
2026-04-27 18:31 43.42503 -3.82337 21 ft 9 kts 199°
2026-04-27 18:31 43.42448 -3.82343 19 ft 8 kts 133°
2026-04-27 18:31 43.42422 -3.82267 19 ft 5 kts 112°
2026-04-27 18:31 43.42420 -3.82258 19 ft 0 kts 112°
2026-04-27 18:32 43.42417 -3.82255 19 ft 1 kts 130°
2026-04-27 18:32 43.42411 -3.82253 19 ft 1 kts 163°
2026-04-27 18:32 43.42403 -3.82257 19 ft 2 kts 200°
2026-04-27 18:32 43.42396 -3.82270 19 ft 2 kts 233°
2026-04-27 18:33 43.42388 -3.82287 20 ft 1 kts 234°
2026-04-27 18:33 43.42386 -3.82290 19 ft 0 kts 234°